{"data":{"norad_id":65845,"intl_designator":"2025-221Y","name":"STARLINK-35302","alt_names":[],"object_type":"PAYLOAD","status":"ACTIVE","operator":null,"country":"US","launch_date":"2025-09-29","launch_site_code":"AFWTR","launch_vehicle":null,"mission":null,"orbit_class":"UNKNOWN","rcs_meters":null,"size_class":null,"mass_kg":null,"dimensions":null,"purposes":["comms"],"wikipedia_slug":null,"has_3d_model":false,"image_url":null,"decayed_at":null,"tle_current":{"epoch":"2026-05-25T03:02:49.815744Z","epoch_age_seconds":57246,"freshness":"FRESH","line1":"1 65845U 25221Y   26145.12696546  .00019046  00000+0  57331-3 0  9998","line2":"2 65845  53.1604  92.7754 0001250  94.0587 266.0559 15.34404676 36444","mean_motion":15.34404676,"eccentricity":0.000125,"inclination_deg":53.1604,"raan_deg":92.7754,"arg_perigee_deg":94.0587,"mean_anomaly_deg":266.0559,"bstar":0.00057331,"rev_number":3644,"period_min":93.847472086301,"perigee_km":461.8342388922,"apogee_km":463.54444547775,"semimajor_km":6840.826342185,"source":"CELESTRAK","updated_at":"2026-05-25T13:38:20.946696Z"}}}